User: anonymous   Login
Location: Unspecified
(0.0000°N, 0.0000°E)
Time: 11:04:34
(UTC+00:00)
Language:

HAIYANG 2D - Orbit

View from above orbital plane
View from above orbital plane
View from above satellite
View from above satellite

Ground track
Ground track

The orbit is defined by the following mean orbital elements,

1 48621U          26145.59193086 +.00000000 +00000-0 +37364-3 0 00009
2 48621  66.0002   0.9552 0011354 271.9045  88.0723 13.83375206    06
Epoch (UTC): 25 May 2026 14:12:22
Eccentricity: 0.0011354
inclination: 66.0002°
perigee height: 944 km
apogee height: 960 km
right ascension of ascending node: 0.9552°
argument of perigee: 271.9045°
revolutions per day: 13.83375206
mean anomaly at epoch: 88.0723°

The dashed part of the orbit path shows where the satellite is in the earth's shadow,  

DLR